Terminal Aerodrome Forecast
Issued by NWS

Home | Current Version | Previous Version | Text Only | Print | Product List | Glossary On
Versions: 1 2 3 4 5 6 7 8 9 10 11 12 13 14 15 16 17 18 19
000
FTUS41 KBTV 222300
TAFSLK
TAF
KSLK 222332Z 2300/2324 26005KT P6SM OVC040
     FM230600 VRB03KT P6SM OVC040
     FM231400 24009KT P6SM BKN045
     FM232100 26006KT P6SM SCT045=

USA.gov is the U.S. government's official web portal to all federal, state and local government web resources and services.